STARLINK-4763, 53805

Orbit data source: Space-Track

STARLINK-4763, 53805 is a payload satellite owned by SpaceX/Seattle (US) in LEO that was launched on Sun, 11 Sep 2022 UTC via an FALCON 9 launch vehicle from the Air Force Eastern Test Range (AFETR). Payload-class satellites include a variety of spacecraft equipped with specific instruments for various scientific and technological missions. These include communications satellites like Starlink; space stations such as the ISS; scientific satellites like the Hubble; Earth observation satellites from companies like Planet Labs, Umbra, and HawkEye 360; GPS; miniature CubeSats for education and research; and military/defense satellites.

Loading next visibility...
Identifier
53805, 2022-111AJ
Orbit
LEO
Last TLE update
16 hours ago
Origin
Manufacturer
SpaceX/Seattle
Mission
Operational Commercial Communications
Bus & Motor
STARLINK, Unknown motor
Mass
305 kg wet, ~290 kg dry
Launch date (UTC)
2022-09-11 (3 years ago)
Launch vehicle
FALCON 9
Launch site
Air Force Eastern Test Range (AFETR)
Object type
Payload
Rocket body
Debris
Shape & HBR
Box + 1 Pan, 8.86 m
Radar Cross Section
13.562 m², Large (>1 m²)

Expand to show TLE details & history

TLE from 16 hours ago
0 STARLINK-4763
1 53805U 22111AJ  25129.10977369  .00000190  00000-0  30064-4 0  9996
2 53805  53.2162 176.5621 0001533  66.0994 294.0159 15.08838438148041
Epoch: 2025-05-09T02:38Z
Definitive object data (Epoch: 2025-05-09T02:38:04.446Z)
Latitude
-0.00001°
Longitude
-90.12706°
Altitude
540.214 km
Speed
7.594 km/s
True Right ascension
11h 46m 14s
True Declination
0° 00' 00"
Sunlit
Object was in full shadow at TLE epoch
Visualization TLE readout
Latitude
51.64846°
Longitude
16.80184°
Altitude
545.081 km
Speed
7.596 km/s
Apparent Right ascension
16h 54m 03s
Apparent Declination
9° 19' 38"
Sunlit
Object is in daylight
Visualization observer readout
Local Sidereal Time
03:09:53
Azimuth
327.998° NNW
Elevation
-35.171°
Doppler factor
1
Orbital elements
Apogee altitude
541.054 km
Perigee altitude
538.933 km
Semi-major axis
6,918.13 km
Eccentricity
0.0001533
Inclination
53.2162°
RAAN
176.5621°
Arg. of periapsis
66.0994°
True anomaly
293.99985°
Mean anomaly
294.0159°
Eccentric anomaly
294.00788°
Mean motion
3.7719 °/min
BSTAR
0.000030064
Orbital period
95.44 mins
Loading maneuver chart data...
Loading SW <> Apogee altitude chart data...
Loading historical data...
Loading historical data...
Loading historical data...
Loading historical data...
Loading historical data...
Loading historical data...
Loading historical data...

STARLINK-4763 Visibility forecast

Observer location: undefined°, undefined°

Span
Click to sort rows by Start time (UTC) header in descending order
Start Az.
Max El. time (UTC)
Max El. Az.
Max El.
End time (UTC)
End Az.
6 mins2025-05-10 05:50:59.691Z233.94° WSW2025-05-10 05:53:59.691Z336.234° NNW44.563°2025-05-10 05:56:59.691Z47.098° ENE
4 mins2025-05-10 07:31:59.691Z306.12° NW2025-05-10 07:33:59.691Z343.38° N18.383°2025-05-10 07:35:59.691Z17.97° NNE
5 mins2025-05-10 10:52:59.691Z344.068° N2025-05-10 10:54:59.691Z21.256° NNE19.78°2025-05-10 10:57:59.691Z71.429° E
6 mins2025-05-10 12:31:59.691Z309.077° NW2025-05-10 12:34:59.691Z154.141° SSE44.674°2025-05-10 12:37:59.691Z132.816° SE
|